| time (UTC) | temp F | wind direction | speed knots | gust knots | rain 1hr in | rain 24hr in | rain mn in | humidity % | barometer mb |
| 20260507031538 | 86 | 126 | 2.6 | 7.8 | 0.00 | 0.00 | 0.00 | 77 | 1009.1 |
| 20260507030038 | 86 | 110 | 4.3 | 10.4 | 0.00 | 0.00 | 0.00 | 76 | 1008.9 |
| 20260507024540 | 87 | 102 | 2.6 | 13.0 | 0.00 | 0.00 | 0.00 | 75 | 1008.5 |
| 20260507023040 | 87 | 132 | 5.2 | 11.3 | 0.00 | 0.00 | 0.00 | 73 | 1008.1 |
| 20260507021540 | 88 | 123 | 3.5 | 8.7 | 0.00 | 0.00 | 0.00 | 72 | 1007.7 |
| 20260507020047 | 88 | 102 | 5.2 | 8.7 | 0.00 | 0.00 | 0.00 | 73 | 1007.4 |
| 20260507014544 | 89 | 93 | 3.5 | 9.6 | 0.00 | 0.00 | 0.00 | 75 | 1006.9 |
| 20260507013036 | 89 | 0 | 4.3 | 11.3 | 0.00 | 0.00 | 0.00 | 74 | 1006.7 |
| 20260507011543 | 90 | 94 | 6.1 | 13.0 | 0.00 | 0.00 | 0.00 | 72 | 1006.3 |
| 20260507010045 | 91 | 85 | 6.1 | 13.0 | 0.00 | 0.00 | 0.00 | 72 | 1006.0 |
| 20260507004539 | 92 | 94 | 4.3 | 12.2 | 0.00 | 0.00 | 0.00 | 69 | 1005.8 |
| 20260507003038 | 94 | 95 | 6.1 | 14.8 | 0.00 | 0.00 | 0.00 | 66 | 1005.4 |
| 20260507001544 | 96 | 68 | 4.3 | 11.3 | 0.00 | 0.00 | 0.00 | 58 | 1005.1 |
| 20260507000051 | 97 | 41 | 2.6 | 7.8 | 0.00 | 0.00 | 0.00 | 56 | 1005.0 |
| 20260506234542 | 98 | 37 | 3.5 | 8.7 | 0.00 | 0.00 | 0.00 | 55 | 1004.8 |
| 20260506233040 | 98 | 39 | 3.5 | 9.6 | 0.00 | 0.00 | 0.00 | 55 | 1004.8 |
| 20260506231540 | 98 | 26 | 4.3 | 11.3 | 0.00 | 0.00 | 0.00 | 56 | 1004.7 |
| 20260506230049 | 98 | 38 | 2.6 | 11.3 | 0.00 | 0.00 | 0.00 | 56 | 1004.5 |
| 20260506224556 | 99 | 20 | 4.3 | 9.6 | 0.00 | 0.00 | 0.00 | 55 | 1004.6 |
| 20260506223041 | 99 | 32 | 6.1 | 11.3 | 0.00 | 0.00 | 0.00 | 55 | 1004.6 |
| 20260506221538 | 100 | 42 | 3.5 | 9.6 | 0.00 | 0.00 | 0.00 | 54 | 1004.6 |
| 20260506220039 | 99 | 360 | 6.1 | 13.0 | 0.00 | 0.00 | 0.00 | 54 | 1004.7 |
| 20260506214534 | 100 | 52 | 4.3 | 10.4 | 0.00 | 0.00 | 0.00 | 55 | 1004.8 |
| 20260506213044 | 99 | 34 | 3.5 | 9.6 | 0.00 | 0.00 | 0.00 | 56 | 1004.9 |
| 20260506211540 | 100 | 360 | 3.5 | 12.2 | 0.00 | 0.00 | 0.00 | 54 | 1004.9 |
| 20260506210041 | 99 | 80 | 3.5 | 8.7 | 0.00 | 0.00 | 0.00 | 56 | 1005.0 |
| 20260506204534 | 98 | 55 | 2.6 | 8.7 | 0.00 | 0.00 | 0.00 | 57 | 1005.3 |
| 20260506203047 | 97 | 348 | 2.6 | 7.8 | 0.00 | 0.00 | 0.00 | 57 | 1005.4 |
| 20260506201543 | 98 | 5 | 3.5 | 8.7 | 0.00 | 0.00 | 0.00 | 57 | 1005.5 |
| 20260506200038 | 97 | 5 | 4.3 | 9.6 | 0.00 | 0.00 | 0.00 | 58 | 1005.6 |
| 20260506194555 | 97 | 5 | 1.7 | 7.0 | 0.00 | 0.00 | 0.00 | 59 | 1005.8 |
| 20260506193037 | 95 | 104 | 0.9 | 4.3 | 0.00 | 0.00 | 0.00 | 62 | 1006.0 |
| 20260506191545 | 94 | 105 | 1.7 | 7.0 | 0.00 | 0.00 | 0.00 | 64 | 1006.3 |
| 20260506190044 | 93 | 320 | 1.7 | 7.8 | 0.00 | 0.00 | 0.00 | 63 | 1006.5 |
| 20260506184539 | 93 | 323 | 0.9 | 5.2 | 0.00 | 0.00 | 0.00 | 65 | 1006.6 |
| 20260506183038 | 91 | 327 | 1.7 | 5.2 | 0.00 | 0.00 | 0.00 | 67 | 1006.8 |
| 20260506181545 | 91 | 170 | 0.9 | 7.0 | 0.00 | 0.00 | 0.00 | 67 | 1007.0 |
| 20260506180048 | 91 | 171 | 4.3 | 9.6 | 0.00 | 0.00 | 0.00 | 67 | 1006.9 |
| 20260506174540 | 90 | 98 | 3.5 | 8.7 | 0.00 | 0.00 | 0.00 | 70 | 1007.1 |
| 20260506173045 | 89 | 136 | 4.3 | 10.4 | 0.00 | 0.00 | 0.00 | 70 | 1007.3 |
| 20260506171551 | 88 | 110 | 7.0 | 10.4 | 0.00 | 0.00 | 0.00 | 71 | 1007.3 |
| 20260506170040 | 87 | 132 | 7.8 | 12.2 | 0.00 | 0.00 | 0.00 | 72 | 1007.4 |
| 20260506164541 | 87 | 130 | 5.2 | 12.2 | 0.00 | 0.00 | 0.00 | 73 | 1007.4 |
| 20260506163043 | 87 | 145 | 6.1 | 12.2 | 0.00 | 0.00 | 0.00 | 73 | 1007.4 |
| 20260506161540 | 86 | 132 | 6.1 | 10.4 | 0.00 | 0.00 | 0.00 | 74 | 1007.1 |
| 20260506160041 | 85 | 153 | 7.0 | 12.2 | 0.00 | 0.00 | 0.00 | 75 | 1007.2 |
| 20260506154608 | 84 | 130 | 4.3 | 10.4 | 0.00 | 0.00 | 0.00 | 77 | 1007.3 |
| 20260506153043 | 83 | 134 | 6.1 | 10.4 | 0.00 | 0.00 | 0.00 | 78 | 1007.3 |
| 20260506151541 | 82 | 163 | 4.3 | 11.3 | 0.00 | 0.00 | 0.00 | 80 | 1007.4 |
| 20260506150042 | 82 | 136 | 5.2 | 9.6 | 0.00 | 0.00 | 0.00 | 81 | 1007.4 |
| 20260506144547 | 81 | 146 | 4.3 | 12.2 | 0.00 | 0.00 | 0.00 | 83 | 1007.6 |
| 20260506143034 | 80 | 153 | 6.1 | 12.2 | 0.00 | 0.00 | 0.00 | 83 | 1007.8 |
| 20260506141541 | 80 | 132 | 7.0 | 9.6 | 0.00 | 0.00 | 0.00 | 83 | 1007.9 |
| 20260506140055 | 80 | 132 | 4.3 | 8.7 | 0.00 | 0.00 | 0.00 | 84 | 1007.6 |
| 20260506134542 | 80 | 137 | 2.6 | 7.8 | 0.00 | 0.00 | 0.00 | 85 | 1007.7 |
| 20260506133045 | 80 | 134 | 2.6 | 6.1 | 0.00 | 0.00 | 0.00 | 86 | 1007.7 |
| 20260506131543 | 79 | 142 | 2.6 | 7.8 | 0.00 | 0.00 | 0.00 | 86 | 1007.8 |
| 20260506130045 | 80 | 135 | 0.9 | 3.5 | 0.00 | 0.00 | 0.00 | 86 | 1007.7 |
| 20260506124541 | 80 | 135 | 1.7 | 3.5 | 0.00 | 0.00 | 0.00 | 85 | 1007.4 |
| 20260506123040 | 80 | 0 | 0.9 | 4.3 | 0.00 | 0.00 | 0.00 | 85 | 1007.2 |
| 20260506121537 | 80 | 150 | 0.9 | 6.1 | 0.00 | 0.00 | 0.00 | 85 | 1006.9 |
| 20260506120040 | 80 | 143 | 3.5 | 7.0 | 0.00 | 0.00 | 0.00 | 85 | 1006.5 |
| 20260506114542 | 80 | 160 | 2.6 | 7.0 | 0.00 | 0.00 | 0.00 | 85 | 1006.0 |
| 20260506113047 | 80 | 146 | 3.5 | 8.7 | 0.00 | 0.00 | 0.00 | 85 | 1006.1 |
| 20260506111537 | 80 | 154 | 5.2 | 9.6 | 0.00 | 0.00 | 0.00 | 84 | 1005.9 |
| 20260506110038 | 80 | 112 | 3.5 | 7.8 | 0.00 | 0.00 | 0.00 | 84 | 1005.7 |
| 20260506104549 | 80 | 136 | 3.5 | 7.8 | 0.00 | 0.00 | 0.00 | 84 | 1005.5 |
| 20260506103042 | 80 | 129 | 4.3 | 9.6 | 0.00 | 0.00 | 0.00 | 84 | 1005.2 |
| 20260506101547 | 80 | 144 | 4.3 | 7.8 | 0.00 | 0.00 | 0.00 | 84 | 1005.1 |
| 20260506100040 | 80 | 129 | 4.3 | 9.6 | 0.00 | 0.00 | 0.00 | 84 | 1005.0 |
| 20260506094536 | 80 | 147 | 3.5 | 10.4 | 0.00 | 0.00 | 0.00 | 84 | 1004.9 |
| 20260506093042 | 80 | 104 | 6.1 | 12.2 | 0.00 | 0.00 | 0.00 | 84 | 1005.0 |
| 20260506091541 | 80 | 146 | 7.8 | 12.2 | 0.00 | 0.00 | 0.00 | 84 | 1004.9 |
| 20260506090040 | 80 | 159 | 8.7 | 13.9 | 0.00 | 0.00 | 0.00 | 83 | 1005.2 |
| 20260506084546 | 80 | 125 | 7.8 | 13.0 | 0.00 | 0.00 | 0.00 | 83 | 1005.2 |
| 20260506083037 | 80 | 146 | 7.0 | 13.0 | 0.00 | 0.00 | 0.00 | 83 | 1005.2 |
| 20260506081542 | 80 | 142 | 8.7 | 16.5 | 0.00 | 0.00 | 0.00 | 83 | 1005.4 |
| 20260506073039 | 80 | 142 | 7.8 | 15.6 | 0.00 | 0.00 | 0.00 | 84 | 1005.7 |
| 20260506071545 | 80 | 126 | 7.8 | 17.4 | 0.00 | 0.00 | 0.00 | 84 | 1005.7 |
| 20260506061554 | 80 | 130 | 9.6 | 14.8 | 0.00 | 0.00 | 0.00 | 85 | 1006.1 |
| 20260506044537 | 80 | 130 | 7.8 | 18.2 | 0.00 | 0.00 | 0.00 | 83 | 1006.8 |
| 20260506043040 | 81 | 134 | 10.4 | 17.4 | 0.00 | 0.00 | 0.00 | 83 | 1006.7 |
| 20260506041540 | 81 | 119 | 7.8 | 17.4 | 0.00 | 0.00 | 0.00 | 82 | 1006.8 |
| 20260506040041 | 81 | 124 | 8.7 | 16.5 | 0.00 | 0.00 | 0.00 | 82 | 1006.8 |
| 20260506034539 | 81 | 115 | 7.8 | 18.2 | 0.00 | 0.00 | 0.00 | 82 | 1006.6 |
| 20260506033047 | 81 | 109 | 8.7 | 20.0 | 0.00 | 0.00 | 0.00 | 81 | 1006.3 |